Change the Weather History Date:

Friday, February 1, 2013

  Actual Average (KLOT) Record (KLOT)
Temperature  
Mean Temperature 8 °F 24 °F  
Max Temperature 17 °F 32 °F 48 °F (2006)
Min Temperature 0 °F 16 °F -7 °F (1996)
Degree Days  
Heating Degree Days 56 41  
Month to date heating degree days 41  
Since 1 July heating degree days 3722  
Cooling Degree Days 0 0  
Month to date cooling degree days 0  
Year to date cooling degree days 0  
Moisture  
Dew Point 1 °F    
Average Humidity 70    
Maximum Humidity 91    
Minimum Humidity 61    
Precipitation  
Precipitation 0.00 in 0.05 in 1.04 in (2015)
Month to date precipitation 0.05  
Year to date precipitation 1.98  
Snow  
Snow 0.00 in 0.30 in 0.00 in (2011)
Month to date snowfall 0.3  
Since 1 July snowfall 21.3  
Snow Depth -    
Sea Level Pressure  
Sea Level Pressure 30.28 in    
Wind  
Wind Speed 10 mph (NW)    
Max Wind Speed 15 mph    
Max Gust Speed 23 mph    
Visibility 9 miles    
Events Snow    
T = Trace of Precipitation, MM = Missing Value Source: NWS Daily Summary

Daily Weather History Graph

Daily Weather History Graph

Search for Another Location

Airport or City:

Trip Planner

Search our weather history database for the weather conditions in past years. The results will help you decide how hot, cold, wet, or windy it might be!

Date:

Astronomy

Feb. 01, 2013 Rise Set
Actual Time 7:04 AM CST 5:09 PM CST
Civil Twilight 6:34 AM CST 5:38 PM CST
Nautical Twilight 6:01 AM CST 6:11 PM CST
Astronomical Twilight 5:29 AM CST 6:44 PM CST
Moon 11:21 PM CST (2/1) 9:32 AM CST (2/1)
Length of Visible Light 11h 03m
Length of Day
10h 04m
Waning Gibbous, 70% of the Moon is Illuminated
Feb 1
Waning Gibbous
Feb 3
Last Quarter
Feb 10
New
Feb 17
First Quarter
Feb 25
Full

Hourly Weather History & Observations

Time (CST) Temp. Windchill Dew Point Humidity Pressure Visibility Wind Dir Wind Speed Gust Speed Precip Events Conditions
12:15 AM 4.1 °F -11.1 °F -3.3 °F 71% 30.19 in 10.0 mi NW 10.4 mph 23.0 mph N/A   Clear
12:35 AM 4.1 °F -13.4 °F -3.1 °F 72% 30.20 in 10.0 mi NW 13.8 mph 18.4 mph N/A   Clear
12:55 AM 3.9 °F -12.2 °F -3.5 °F 71% 30.21 in 10.0 mi NW 11.5 mph 23.0 mph N/A   Clear
1:15 AM 3.7 °F -13.9 °F -3.5 °F 72% 30.22 in 10.0 mi NNW 13.8 mph 19.6 mph N/A   Clear
1:35 AM 3.7 °F -13.9 °F -3.8 °F 71% 30.23 in 10.0 mi NNW 13.8 mph 21.9 mph N/A   Clear
1:55 AM 3.2 °F -15.3 °F -4.0 °F 72% 30.23 in 10.0 mi NNW 15.0 mph 20.7 mph N/A   Clear
2:15 AM 3.2 °F -14.6 °F -3.8 °F 73% 30.24 in 10.0 mi NNW 13.8 mph 23.0 mph N/A   Clear
2:35 AM 3.2 °F -14.6 °F -3.8 °F 73% 30.26 in 10.0 mi NNW 13.8 mph 21.9 mph N/A   Clear
2:55 AM 3.0 °F -14.1 °F -4.0 °F 73% 30.26 in 10.0 mi NW 12.7 mph 20.7 mph N/A   Scattered Clouds
3:15 AM 2.5 °F -15.5 °F -4.9 °F 71% 30.27 in 10.0 mi NW 13.8 mph 21.9 mph N/A   Clear
3:35 AM 2.3 °F -15.0 °F -4.5 °F 73% 30.28 in 10.0 mi NNW 12.7 mph 19.6 mph N/A   Clear
3:55 AM 2.3 °F -14.2 °F -4.2 °F 74% 30.28 in 10.0 mi NW 11.5 mph 18.4 mph N/A   Clear
4:15 AM 1.9 °F -14.7 °F -5.3 °F 72% 30.29 in 10.0 mi NW 11.5 mph 21.9 mph N/A   Clear
4:35 AM 1.9 °F -13.8 °F -4.4 °F 75% 30.29 in 10.0 mi NW 10.4 mph 17.3 mph N/A   Clear
4:55 AM 1.9 °F -13.8 °F -4.5 °F 74% 30.30 in 10.0 mi NNW 10.4 mph 17.3 mph N/A   Clear
5:15 AM 1.8 °F -13.1 °F -4.2 °F 76% 30.30 in 10.0 mi NNW 9.2 mph 17.3 mph N/A   Clear
5:35 AM 1.4 °F -16.1 °F -5.6 °F 72% 30.31 in 10.0 mi NW 12.7 mph 17.3 mph N/A   Clear
5:55 AM 1.4 °F -14.5 °F -5.8 °F 72% 30.31 in 10.0 mi NW 10.4 mph - N/A   Clear
6:15 AM 1.2 °F -14.7 °F -4.9 °F 75% 30.31 in 10.0 mi NW 10.4 mph - N/A   Clear
6:35 AM 0.9 °F -14.2 °F -5.6 °F 74% 30.32 in 10.0 mi NW 9.2 mph 17.3 mph N/A   Clear
6:55 AM 0.9 °F -11.9 °F -5.3 °F 75% 30.32 in 10.0 mi NW 6.9 mph - N/A   Clear
7:15 AM 0.5 °F -13.6 °F -5.8 °F 75% 30.33 in 10.0 mi NW 8.1 mph - N/A   Clear
7:35 AM 1.2 °F -13.7 °F -4.9 °F 75% 30.34 in 10.0 mi NNW 9.2 mph - N/A   Scattered Clouds
7:55 AM 1.4 °F -13.5 °F -5.8 °F 72% 30.35 in 10.0 mi NNW 9.2 mph - N/A   Scattered Clouds
8:15 AM 1.9 °F -12.9 °F -4.9 °F 73% 30.35 in 7.0 mi NW 9.2 mph 17.3 mph N/A   Clear
8:35 AM 2.3 °F -13.4 °F -4.9 °F 72% 30.35 in 10.0 mi NNW 10.4 mph - N/A   Clear
8:55 AM 3.2 °F -13.1 °F -5.8 °F 66% 30.35 in 10.0 mi NW 11.5 mph 16.1 mph N/A   Clear
9:15 AM 3.6 °F -11.8 °F -4.0 °F 71% 30.35 in 10.0 mi NW 10.4 mph - N/A   Clear
9:35 AM 4.1 °F -9.2 °F -4.0 °F 69% 30.36 in 10.0 mi NW 8.1 mph - N/A   Clear
9:55 AM 5.0 °F -10.0 °F -2.2 °F 72% 30.37 in 10.0 mi NNW 10.4 mph - N/A   Clear
10:15 AM 5.4 °F -10.4 °F -3.3 °F 68% 30.37 in 10.0 mi NNW 11.5 mph - N/A   Clear
10:35 AM 6.4 °F -9.0 °F -2.4 °F 67% 30.37 in 10.0 mi NNW 11.5 mph 17.3 mph N/A   Clear
10:55 AM 7.0 °F -8.3 °F -1.5 °F 68% 30.37 in 10.0 mi NW 11.5 mph 16.1 mph N/A   Clear
11:15 AM 7.5 °F -6.9 °F -0.9 °F 68% 30.36 in 10.0 mi NW 10.4 mph 16.1 mph N/A   Clear
11:35 AM 7.9 °F -7.2 °F -0.9 °F 67% 30.36 in 10.0 mi NW 11.5 mph - N/A   Clear
11:55 AM 9.3 °F -5.4 °F 0.1 °F 66% 30.36 in 10.0 mi NNW 11.5 mph 17.3 mph N/A   Clear
12:15 PM 9.5 °F -5.9 °F 0.3 °F 66% 30.34 in 10.0 mi NW 12.7 mph 18.4 mph N/A   Clear
12:35 PM 10.4 °F -3.3 °F 0.9 °F 65% 30.35 in 10.0 mi NNW 10.4 mph - N/A   Scattered Clouds
12:55 PM 10.9 °F -4.7 °F 0.3 °F 62% 30.34 in 10.0 mi NW 13.8 mph 18.4 mph N/A   Scattered Clouds
1:15 PM 11.5 °F -4.1 °F 1.0 °F 63% 30.33 in 10.0 mi NW 13.8 mph 18.4 mph N/A   Scattered Clouds
1:35 PM 12.2 °F -1.8 °F 1.8 °F 63% 30.32 in 10.0 mi NNW 11.5 mph - N/A   Clear
1:55 PM 12.4 °F 2.0 °F 2.3 °F 64% 30.31 in 10.0 mi NW 6.9 mph 17.3 mph N/A   Scattered Clouds
2:15 PM 13.1 °F -0.7 °F 2.5 °F 63% 30.30 in 10.0 mi NW 11.5 mph 17.3 mph N/A   Scattered Clouds
2:35 PM 13.8 °F 1.0 °F 3.2 °F 63% 30.30 in 10.0 mi NW 10.4 mph - N/A   Scattered Clouds
2:55 PM 13.8 °F 1.0 °F 2.7 °F 61% 30.30 in 10.0 mi NW 10.4 mph 17.3 mph N/A   Clear
3:15 PM 13.1 °F -0.7 °F 2.3 °F 62% 30.29 in 10.0 mi NW 11.5 mph 17.3 mph N/A   Clear
3:35 PM 13.1 °F 1.8 °F 2.3 °F 62% 30.29 in 10.0 mi NW 8.1 mph - N/A   Clear
3:55 PM 13.6 °F 1.6 °F 2.5 °F 61% 30.29 in 10.0 mi NNW 9.2 mph - N/A   Clear
4:15 PM 13.5 °F -0.2 °F 2.1 °F 61% 30.29 in 10.0 mi NW 11.5 mph 16.1 mph N/A   Clear
4:35 PM 13.5 °F 2.2 °F 2.7 °F 62% 30.29 in 10.0 mi NNW 8.1 mph - N/A   Clear
4:55 PM 13.1 °F 1.8 °F 3.4 °F 65% 30.28 in 10.0 mi NW 8.1 mph - N/A   Clear
5:15 PM 13.1 °F 4.0 °F 3.7 °F 66% 30.28 in 10.0 mi NW 5.8 mph - N/A   Clear
5:35 PM 13.1 °F 2.8 °F 4.1 °F 67% 30.28 in 10.0 mi NW 6.9 mph - N/A   Clear
5:55 PM 12.9 °F 3.8 °F 4.5 °F 69% 30.27 in 10.0 mi NNW 5.8 mph - N/A   Clear
6:15 PM 12.7 °F 5.0 °F 4.5 °F 70% 30.26 in 10.0 mi NW 4.6 mph - N/A   Clear
6:35 PM 12.6 °F 4.8 °F 4.5 °F 70% 30.25 in 10.0 mi NW 4.6 mph - N/A   Clear
6:55 PM 13.1 °F 7.1 °F 4.6 °F 69% 30.27 in 10.0 mi NNW 3.5 mph - N/A   Clear
7:15 PM 13.5 °F 5.8 °F 4.8 °F 68% 30.25 in 10.0 mi NNW 4.6 mph - N/A   Scattered Clouds
7:35 PM 13.8 °F 8.0 °F 5.7 °F 70% 30.24 in 10.0 mi NW 3.5 mph - N/A   Mostly Cloudy
7:55 PM 14.2 °F 8.4 °F 6.3 °F 71% 30.23 in 10.0 mi NW 3.5 mph - N/A   Mostly Cloudy
8:15 PM 14.5 °F 5.7 °F 6.8 °F 71% 30.22 in 10.0 mi NW 5.8 mph - N/A   Overcast
8:35 PM 15.4 °F 5.6 °F 7.5 °F 71% 30.22 in 10.0 mi NW 6.9 mph - N/A   Mostly Cloudy
8:55 PM 16.3 °F 6.7 °F 7.5 °F 68% 30.22 in 10.0 mi NNW 6.9 mph - N/A   Overcast
9:15 PM 16.7 °F 8.3 °F 7.2 °F 66% 30.21 in 10.0 mi NW 5.8 mph - N/A   Overcast
9:35 PM 16.7 °F 7.2 °F 7.5 °F 67% 30.21 in 10.0 mi NNW 6.9 mph - N/A   Overcast
9:55 PM 17.1 °F 10.0 °F 7.7 °F 67% 30.20 in 10.0 mi NW 4.6 mph - N/A   Overcast
10:15 PM 17.2 °F 7.8 °F 9.1 °F 71% 30.20 in 2.0 mi NW 6.9 mph - N/A Snow Light Snow
10:35 PM 17.1 °F 10.0 °F 11.1 °F 77% 30.20 in 1.5 mi NNW 4.6 mph - N/A Snow Light Snow
10:55 PM 16.7 °F 9.6 °F 12.9 °F 85% 30.19 in 1.5 mi NNW 4.6 mph - N/A Snow Light Snow
11:15 PM 16.5 °F 11.0 °F 13.5 °F 88% 30.19 in 1.2 mi NW 3.5 mph - N/A Snow Light Snow
11:35 PM 16.5 °F 11.0 °F 13.8 °F 89% 30.19 in 1.2 mi NW 3.5 mph - N/A Snow Light Snow
11:55 PM 16.7 °F 9.6 °F 14.4 °F 91% 30.18 in 1.0 mi NNW 4.6 mph - N/A Snow Light Snow